TimeAST,TemperatureF,Dew PointF,Humidity,Sea Level PressureIn,VisibilityMPH,Wind Direction,Wind SpeedMPH,Gust SpeedMPH,PrecipitationIn,Events,Conditions,WindDirDegrees,DateUTC
12:00 AM,77.0,77.0,100,29.92,6.2,Calm,Calm,-,N/A,Thunderstorm,Thunderstorm,0,2012-11-17 04:00:00
1:00 AM,75.2,75.2,100,29.92,6.2,Calm,Calm,-,N/A,,Scattered Clouds,0,2012-11-17 05:00:00
2:00 AM,75.2,75.2,100,29.92,6.2,Calm,Calm,-,N/A,,Scattered Clouds,0,2012-11-17 06:00:00
3:00 AM,75.2,75.2,100,29.89,-9999.0,Calm,Calm,-,N/A,,Scattered Clouds,0,2012-11-17 07:00:00
4:00 AM,75.2,75.2,100,29.89,-9999.0,Calm,Calm,-,N/A,,Scattered Clouds,0,2012-11-17 08:00:00
5:00 AM,75,74,98,29.90,6,North,4.5,,,,Haze,0,2012-11-17 09:00:00
5:00 AM,75.2,75.2,100,29.89,6.2,North,4.6,-,N/A,,Scattered Clouds,360,2012-11-17 09:00:00
6:00 AM,75.2,75.2,100,29.89,6.2,South,4.6,-,N/A,,Scattered Clouds,190,2012-11-17 10:00:00
7:00 AM,73.4,73.4,100,29.92,6.2,Calm,Calm,-,N/A,,Mostly Cloudy,0,2012-11-17 11:00:00
8:00 AM,73,71,92,29.93,6,NE,4.5,,,,Haze,50,2012-11-17 12:00:00
8:00 AM,73.4,71.6,94,29.92,6.2,NE,4.6,-,N/A,,Mostly Cloudy,50,2012-11-17 12:00:00
9:00 AM,75.2,73.4,94,29.92,6.2,East,9.2,-,N/A,,Mostly Cloudy,90,2012-11-17 13:00:00
10:00 AM,77.0,73.4,89,29.95,6.2,East,8.1,-,N/A,,Mostly Cloudy,100,2012-11-17 14:00:00
11:00 AM,78,74,84,29.96,6,East,6.7,,,,Haze,100,2012-11-17 15:00:00
11:00 AM,78.8,73.4,83,29.95,6.2,East,6.9,-,N/A,,Mostly Cloudy,100,2012-11-17 15:00:00
12:00 PM,82.4,75.2,79,29.95,6.2,ENE,10.4,-,N/A,,Mostly Cloudy,70,2012-11-17 16:00:00
1:00 PM,82.4,73.4,74,29.92,6.2,ESE,5.8,-,N/A,,Mostly Cloudy,120,2012-11-17 17:00:00
2:00 PM,83,74,68,29.92,6,SE,6.7,,,,Haze,140,2012-11-17 18:00:00
2:00 PM,84.2,75.2,74,29.92,6.2,SE,5.8,-,N/A,,Mostly Cloudy,140,2012-11-17 18:00:00
3:00 PM,84.2,73.4,70,29.89,6.2,SE,4.6,-,N/A,,Mostly Cloudy,130,2012-11-17 19:00:00
4:00 PM,84.2,73.4,70,29.89,6.2,Calm,Calm,-,N/A,,Mostly Cloudy,0,2012-11-17 20:00:00
5:00 PM,83,75,70,29.91,6,Calm,Calm,,,,Haze,,2012-11-17 21:00:00
5:00 PM,82.4,75.2,79,29.89,6.2,Calm,Calm,-,N/A,,Mostly Cloudy,0,2012-11-17 21:00:00
6:00 PM,80.6,75.2,84,29.89,6.2,Calm,Calm,-,N/A,,Mostly Cloudy,0,2012-11-17 22:00:00
7:00 PM,80.6,75.2,84,29.92,6.2,Calm,Calm,-,N/A,,Mostly Cloudy,0,2012-11-17 23:00:00
8:00 PM,79,76,89,29.93,4,Calm,Calm,,,,Haze,,2012-11-18 00:00:00
8:00 PM,78.8,77.0,94,29.92,6.2,Calm,Calm,-,N/A,,Mostly Cloudy,0,2012-11-18 00:00:00
9:00 PM,77.0,77.0,100,29.92,6.2,ENE,4.6,-,N/A,,Mostly Cloudy,70,2012-11-18 01:00:00
10:00 PM,77.0,77.0,100,29.95,6.2,Calm,Calm,-,N/A,,Mostly Cloudy,0,2012-11-18 02:00:00
11:00 PM,78,76,94,29.96,4,ESE,4.5,,,,Haze,120,2012-11-18 03:00:00
11:00 PM,77.0,77.0,100,29.95,6.2,ESE,4.6,-,N/A,,Mostly Cloudy,120,2012-11-18 03:00:00